Location: Newark
(41.5175°N, 72.7122°W)
Time: 19:32:17
(UTC+00:00)

ISS - Visible Passes

Search period start: 19 October 2021 00:00
Search period end: 29 October 2021 00:00
Orbit: 417 x 423 km, 51.6° (Epoch: 19 October)

Date Brightness Start Highest point End Pass type
(mag) Time Alt. Az. Time Alt. Az. Time Alt. Az.
19 Oct -0.7 10:23:31 10° SSE 10:25:29 15° SE 10:27:27 10° E visible
21 Oct -2.5 10:24:23 10° SSW 10:27:36 42° SE 10:30:49 10° ENE visible
22 Oct -1.7 09:37:47 11° S 09:40:29 25° SE 09:43:20 10° ENE visible
23 Oct -1.0 08:53:19 15° SE 08:53:25 15° SE 08:55:28 10° E visible
23 Oct -3.7 10:26:33 10° WSW 10:29:54 65° NNW 10:33:15 10° NE visible
24 Oct -3.7 09:41:40 43° SW 09:42:39 77° SE 09:46:02 10° ENE visible
25 Oct -1.6 08:56:50 27° E 08:56:50 27° E 08:58:41 10° ENE visible
25 Oct -2.6 10:29:50 13° W 10:32:22 29° NNW 10:35:23 10° NE visible
26 Oct -3.2 09:44:50 40° NW 09:45:00 41° NNW 09:48:14 10° NE visible
27 Oct -1.4 08:59:44 21° NE 08:59:44 21° NE 09:01:03 10° NE visible
27 Oct -1.9 10:32:44 11° WNW 10:35:01 18° NNW 10:37:27 10° NNE visible
28 Oct -2.1 09:47:33 22° NNW 09:47:33 22° NNW 09:50:16 10° NE visible
